TimeEDT,TemperatureF,Dew PointF,Humidity,Sea Level PressureIn,VisibilityMPH,Wind Direction,Wind SpeedMPH,Gust SpeedMPH,PrecipitationIn,Events,Conditions,WindDirDegrees,DateUTC
12:00 AM,-9999,-9999,N/A,30.06,6.2,SSW,2.3,-,N/A,,Mostly Cloudy,200,2013-08-05 04:00:00
1:00 AM,82.4,75.2,79,30.04,6.2,Variable,1.2,-,N/A,,Mostly Cloudy,0,2013-08-05 05:00:00
2:00 AM,82,76,77,30.03,9,SSE,2.3,,,,Scattered Clouds,160,2013-08-05 06:00:00
2:00 AM,82.4,75.2,79,30.03,6.2,Variable,1.2,-,N/A,,Mostly Cloudy,0,2013-08-05 06:00:00
3:00 AM,82.4,75.2,79,30.03,6.2,Variable,1.2,-,N/A,,Mostly Cloudy,0,2013-08-05 07:00:00
4:00 AM,80.6,75.2,84,30.02,6.2,Calm,Calm,-,N/A,,Mostly Cloudy,0,2013-08-05 08:00:00
5:00 AM,81,75,77,30.01,9,SSE,2.3,,,,Scattered Clouds,160,2013-08-05 09:00:00
5:00 AM,80.6,75.2,84,30.01,6.2,Variable,2.3,-,N/A,,Mostly Cloudy,0,2013-08-05 09:00:00
6:00 AM,80.6,75.2,84,30.01,6.2,Calm,Calm,-,N/A,,Mostly Cloudy,0,2013-08-05 10:00:00
7:00 AM,80.6,75.2,84,30.02,6.2,Calm,Calm,-,N/A,,Mostly Cloudy,0,2013-08-05 11:00:00
8:00 AM,83,77,79,30.04,9,SW,2.3,,,,Scattered Clouds,220,2013-08-05 12:00:00
8:00 AM,82.4,77.0,84,30.03,6.2,Variable,2.3,-,N/A,,Mostly Cloudy,0,2013-08-05 12:00:00
9:00 AM,84.2,75.2,74,30.04,6.2,South,3.5,-,N/A,,Mostly Cloudy,180,2013-08-05 13:00:00
10:00 AM,84.2,75.2,74,30.04,6.2,WSW,5.8,-,N/A,,Mostly Cloudy,250,2013-08-05 14:00:00
11:00 AM,89.6,77.0,66,30.05,6.2,South,4.6,-,N/A,,Mostly Cloudy,190,2013-08-05 15:00:00
12:00 PM,87.8,73.4,62,30.05,6.2,WSW,4.6,-,N/A,,Mostly Cloudy,250,2013-08-05 16:00:00
1:00 PM,87.8,71.6,58,30.05,6.2,WSW,6.9,-,N/A,,Mostly Cloudy,240,2013-08-05 17:00:00
2:00 PM,88,73,54,30.03,9,West,4.6,,,,Partly Cloudy,280,2013-08-05 18:00:00
2:00 PM,87.8,73.4,62,30.03,6.2,West,4.6,-,N/A,,Mostly Cloudy,280,2013-08-05 18:00:00
3:00 PM,87.8,73.4,62,30.02,6.2,NNW,3.5,-,N/A,,Mostly Cloudy,330,2013-08-05 19:00:00
4:00 PM,86.0,75.2,70,30.01,6.2,NNE,3.5,-,N/A,,Overcast,30,2013-08-05 20:00:00
5:00 PM,86.0,77.0,74,29.99,6.2,North,4.6,-,N/A,Rain,Light Rain,360,2013-08-05 21:00:00
6:00 PM,84.2,77.0,79,29.98,6.2,ENE,3.5,-,N/A,Rain,Light Rain,60,2013-08-05 22:00:00
7:00 PM,84.2,77.0,79,29.97,6.2,Calm,Calm,-,N/A,,Mostly Cloudy,0,2013-08-05 23:00:00
8:00 PM,83,78,79,30.00,9,Calm,Calm,,,Rain,Light Rain,,2013-08-06 00:00:00
8:00 PM,82.4,77.0,84,30.00,6.2,Calm,Calm,-,N/A,Rain,Light Rain,0,2013-08-06 00:00:00
9:00 PM,82.4,75.2,79,30.01,6.2,Calm,Calm,-,N/A,,Mostly Cloudy,0,2013-08-06 01:00:00
10:00 PM,82.4,75.2,79,30.02,6.2,Calm,Calm,-,N/A,,Mostly Cloudy,0,2013-08-06 02:00:00
11:00 PM,83,77,79,30.03,8,,1.2,,,,Partly Cloudy,,2013-08-06 03:00:00
11:00 PM,82.4,77.0,84,30.02,6.2,Variable,1.2,-,N/A,,Mostly Cloudy,0,2013-08-06 03:00:00